Flag for Kazakhstan Weather past 2 weeks in Qyzylorda, Kazakhstan

Now
3 °F

Sunny.


Feels Like: -12 °F
Forecast: -4 / 9 °F
Wind: 10 mph from Northeast

Location: Kzyl-Orda

Current Time: Jan 26, 2015 at 5:21:03 PM

Latest Report: Jan 26, 2015 at 5:00 PM


Visibility: 10 mi

Pressure: 30.72 "Hg

Humidity: 78%

Dew point: -2 °F

Location of QyzylordaLocation

Historic Weather in Qyzylorda — Graph

°F

Qyzylorda temperature yesterday

Maximum temperature yesterday: 5 °F (at 3:30 PM)
Minimum temperature yesterday: -13 °F (at 9:00 AM)
Average temperature yesterday: -4 °F

Past Weeks' High & Low Weather Summary

 TemperatureHumidityPressure
High48 °F (Jan 17, 3:00 PM)100% (Jan 12, 6:30 AM)30.80 "Hg (Jan 12, 6:30 AM)
Low-17 °F (Jan 26, 8:30 AM)46% (Jan 17, 3:00 PM)29.95 "Hg (Jan 17, 1:30 PM)
Average24 °F87%30.37 "Hg
* Reported Jan 11 4:00 PM — Jan 26 4:00 PM, Qyzylorda, Weather by CustomWeather, © 2014

Note: Actual official high and low records may vary slightly from our data, if they occured in-between our weather recording intervals... More about our weather records

Advertising

Qyzylorda weather history for previous 24 hours

 ConditionsComfort  
Time TempWeatherWind HumidityBarometerVisibility
4:00 PM
Jan 26
3 °FSunny.10 mph72%30.74 "Hg10 mi
3:30 PM3 °FSunny.10 mph72%30.74 "Hg10 mi
3:00 PM3 °FSunny.10 mph72%30.74 "Hg10 mi
2:30 PM3 °FSunny.10 mph72%30.74 "Hg10 mi
2:00 PM0 °FSunny.10 mph78%30.74 "Hg10 mi
1:30 PM0 °FSunny.8 mph78%30.74 "Hg10 mi
1:00 PM-2 °FSunny.10 mph77%30.74 "Hg10 mi
12:30 PM-4 °FSunny.10 mph77%30.77 "Hg10 mi
12:00 PM-8 °FSunny.8 mph77%30.77 "Hg10 mi
11:30 AM-8 °FSunny.8 mph77%30.77 "Hg10 mi
11:00 AM-11 °FSunny.8 mph84%30.77 "Hg10 mi
10:30 AM-11 °FSunny.10 mph76%30.77 "Hg10 mi
10:00 AM-15 °FClear.8 mph76%30.74 "Hg10 mi
9:30 AM-15 °FClear.8 mph76%30.74 "Hg10 mi
9:00 AM-17 °FClear.8 mph83%30.74 "Hg10 mi
8:30 AM-17 °FClear.8 mph83%30.74 "Hg10 mi
7:30 AM-15 °FClear.8 mph76%30.74 "Hg10 mi
7:00 AM-15 °FClear.10 mph76%30.74 "Hg10 mi
6:00 AM-15 °FClear.8 mph76%30.72 "Hg10 mi
5:00 AM-15 °FClear.8 mph83%30.74 "Hg10 mi
4:00 AM-13 °FClear.8 mph76%30.74 "Hg10 mi
3:00 AM-13 °FClear.8 mph83%30.74 "Hg10 mi
2:00 AM-11 °FClear.8 mph76%30.74 "Hg10 mi
1:00 AM-11 °FClear.8 mph84%30.77 "Hg10 mi
12:00 AM-9 °FClear.8 mph77%30.77 "Hg10 mi
11:00 PM
Jan 25
-8 °FClear.8 mph77%30.77 "Hg10 mi
10:00 PM-8 °FClear.6 mph77%30.77 "Hg10 mi
9:00 PM-6 °FClear.6 mph77%30.80 "Hg10 mi
8:00 PM-6 °FClear.8 mph77%30.80 "Hg10 mi
7:30 PM-4 °FSunny.6 mph77%30.80 "Hg10 mi
7:00 PM-2 °FSunny.8 mph77%30.77 "Hg10 mi
6:30 PM0 °FSunny.10 mph71%30.77 "Hg10 mi
6:00 PM1 °FSunny.13 mph71%30.77 "Hg10 mi
5:30 PM3 °FSunny.10 mph66%30.77 "Hg10 mi
5:00 PM3 °FSunny.10 mph72%30.77 "Hg10 mi
Weather by CustomWeather, © 2014

See weather overviewHow to use our weather pages